DW5678 Kavala GR current weather conditions

sailwx.info

Wind from 273

Air temperature 8.3° C
Dewpoint 3.2° C

Last reported at 2017-Dec-11 23:58 UTC.
Time now 2017-Dec-12 00:47 UTC

Location: N 40°56' E 024°24'.
View on Google Maps.

See reports from other nearby stations

  
Tides and Currents Weather Stations Pressure Air Temp Water Temp Dewpoint Dewpoint Depression Visibility Wind Speed Wind Dir Waves Ship Positions
date/time (UTC)wind fromknots sea level pressurealtimeterstation pressurevisibilityair tempwater tempwave heightnotes
2017-Dec-12 00:08 8.3
2017-Dec-11 23:58 273 8.3
2017-Dec-11 23:48 273 8.9
2017-Dec-11 23:38 264 1 gusting 4 9.4
2017-Dec-11 23:28 315 1 gusting 6 8.3
2017-Dec-11 23:18 340 1 gusting 6 7.8
2017-Dec-11 23:08 320 3 gusting 6 7.8
2017-Dec-11 22:58 267 2 gusting 6 7.2
2017-Dec-11 22:48 263 0 gusting 6 8.9
2017-Dec-11 22:38 013 1 gusting 5 9.4
2017-Dec-11 22:28 9.4
2017-Dec-11 22:18 287 1 gusting 7 8.3
2017-Dec-11 22:08 229 1 gusting 4 7.2
2017-Dec-11 21:58 207 1 gusting 6 8.3
2017-Dec-11 21:48 264 1 gusting 5 8.3
2017-Dec-11 21:38 259 4 gusting 7 8.3
2017-Dec-11 21:28 244 8.9
2017-Dec-11 21:18 227 1 gusting 7 10.0
2017-Dec-11 21:08 321 0 gusting 5 10.0
2017-Dec-11 20:58 170 0 gusting 5 10.0
2017-Dec-11 20:48 029 0 gusting 4 10.0
2017-Dec-11 20:38 031 0 gusting 5 10.0
2017-Dec-11 20:28 355 1 gusting 5 10.0
2017-Dec-11 20:18 005 1 gusting 4 10.0
2017-Dec-11 20:08 326 1 gusting 4 10.0
2017-Dec-11 19:58 309 10.0
2017-Dec-11 19:48 259 0 gusting 2 10.0
2017-Dec-11 19:38 355 0 gusting 5 10.0
2017-Dec-11 19:28 279 10.0
2017-Dec-11 19:18 291 0 gusting 2 10.0
2017-Dec-11 19:08 298 10.0
2017-Dec-11 18:58 337 1 gusting 4 10.0
2017-Dec-11 18:48 272 10.0
2017-Dec-11 18:08 291 10.0
2017-Dec-11 17:58 302 0 gusting 4 10.0
2017-Dec-11 17:48 250 10.0
2017-Dec-11 17:38 242 0 gusting 5 10.0
2017-Dec-11 17:28 294 0 gusting 2 10.0
2017-Dec-11 17:18 268 0 gusting 4 10.0
2017-Dec-11 17:08 236 10.0
2017-Dec-11 16:58 300 10.0
2017-Dec-11 16:48 340 10.0
2017-Dec-11 16:38 355 10.0
2017-Dec-11 16:28 248 10.6
2017-Dec-11 16:18 248 10.0
2017-Dec-11 16:08 248 10.0
2017-Dec-11 15:58 246 10.0
2017-Dec-11 15:48 246 0 gusting 1 10.0
2017-Dec-11 15:38 242 10.6
2017-Dec-11 15:28 237 0 gusting 2 11.1
2017-Dec-11 15:18 230 0 gusting 5 11.1
2017-Dec-11 15:08 230 1 gusting 5 11.1
2017-Dec-11 14:58 235 0 gusting 6 11.1
2017-Dec-11 14:48 212 2 gusting 4 11.1
2017-Dec-11 14:38 221 1 gusting 6 11.7
2017-Dec-11 14:28 219 3 gusting 6 11.7
2017-Dec-11 14:18 232 2 gusting 6 11.7
2017-Dec-11 14:08 220 1 gusting 5 11.7
2017-Dec-11 13:58 211 1 gusting 4 11.7
2017-Dec-11 13:48 175 0 gusting 0 11.7
2017-Dec-11 13:38 175 12.2
2017-Dec-11 13:28 235 12.2
2017-Dec-11 13:18 211 0 gusting 4 12.2
2017-Dec-11 13:08 213 0 gusting 4 12.2
2017-Dec-11 12:58 220 0 gusting 4 12.2
2017-Dec-11 12:48 227 1 gusting 4 12.2
2017-Dec-11 12:38 226 0 gusting 4 12.2
2017-Dec-11 12:28 237 1 gusting 5 12.2
2017-Dec-11 12:18 212 2 gusting 4 12.2
2017-Dec-11 12:08 229 0 gusting 2 12.2
2017-Dec-11 11:58 229 1 gusting 4 12.2
2017-Dec-11 11:48 207 0 gusting 4 12.2
2017-Dec-11 11:38 211 1 gusting 6 11.7
2017-Dec-11 11:28 220 2 gusting 5 11.7
2017-Dec-11 11:18 236 1 gusting 5 12.2
2017-Dec-11 11:08 197 2 gusting 5 12.2
2017-Dec-11 10:58 184 1 gusting 2 12.2
2017-Dec-11 10:48 204 1 gusting 4 12.2
2017-Dec-11 10:38 247 0 gusting 6 12.2
2017-Dec-11 10:28 222 1 gusting 5 12.2
2017-Dec-11 10:18 223 1 gusting 10 12.2
2017-Dec-11 10:08 257 2 gusting 6 12.2
2017-Dec-11 09:58 195 0 gusting 8 12.2
2017-Dec-11 09:48 216 2 gusting 6 11.1
2017-Dec-11 09:38 268 2 gusting 6 10.6
2017-Dec-11 09:28 244 0 gusting 6 11.1
2017-Dec-11 09:18 192 0 gusting 6 10.0
2017-Dec-11 09:08 027 1 gusting 4 10.0
2017-Dec-11 08:58 136 1 gusting 6 10.6
2017-Dec-11 08:48 171 1 gusting 10 8.9
2017-Dec-11 08:38 257 4 gusting 8 8.3
2017-Dec-11 08:28 273 3 gusting 6 8.9
2017-Dec-11 08:18 244 2 gusting 5 9.4
2017-Dec-11 08:08 273 1 gusting 10 8.3
2017-Dec-11 07:58 286 5 gusting 10 8.3
2017-Dec-11 07:48 285 10.0
2017-Dec-11 07:38 257 4 gusting 11 10.0
2017-Dec-11 07:28 289 9.4
2017-Dec-11 07:18 267 0 gusting 4 10.0
2017-Dec-11 07:08 025 0 gusting 6 8.9
2017-Dec-11 06:58 248 1 gusting 5 7.8
2017-Dec-11 06:48 055 0 gusting 2 7.8
2017-Dec-11 06:38 172 0 gusting 2 7.2
2017-Dec-11 06:28 253 0 gusting 5 6.7
2017-Dec-11 06:18 262 0 gusting 2 6.1
2017-Dec-11 06:08 198 5.6
2017-Dec-11 05:58 265 0 gusting 1 5.6
2017-Dec-11 05:48 263 5.6
2017-Dec-11 05:38 292 6.7
2017-Dec-11 05:28 291 1 gusting 5 6.1
2017-Dec-11 05:18 257 6.1
2017-Dec-11 05:08 257 6.7
2017-Dec-11 04:58 257 0 gusting 4 5.6
2017-Dec-11 04:48 029 0 gusting 2 6.1
2017-Dec-11 04:38 069 0 gusting 6 7.8
2017-Dec-11 04:28 035 0 gusting 6 7.8
2017-Dec-11 04:18 045 1 gusting 6 7.2
2017-Dec-11 04:08 108 0 gusting 2 6.1
2017-Dec-11 03:58 220 5.6
2017-Dec-11 03:48 274 1 gusting 5 6.1
2017-Dec-11 03:38 331 0 gusting 7 8.3
2017-Dec-11 03:28 351 5 gusting 10 8.3
2017-Dec-11 03:18 002 4 gusting 8 7.8
2017-Dec-11 03:08 024 1 gusting 4 6.1
2017-Dec-11 02:58 086 0 gusting 2 6.1
2017-Dec-11 02:48 005 1 gusting 7 7.8
2017-Dec-11 02:38 044 0 gusting 6 7.2
2017-Dec-11 02:28 356 0 gusting 4 7.2
2017-Dec-11 02:18 7.2
2017-Dec-11 02:08 037 0 gusting 7 7.8
2017-Dec-11 01:58 005 1 gusting 7 6.1
2017-Dec-11 01:48 336 4 gusting 8 6.1
2017-Dec-11 01:38 327 5.6
2017-Dec-11 01:28 355 5.6
2017-Dec-11 01:18 181 5.6
2017-Dec-11 01:08 181 5.6
2017-Dec-11 00:58 181 6.1
2017-Dec-11 00:48 181 6.1
2017-Dec-11 00:38 261 5.6
2017-Dec-11 00:28 249 6.1
2017-Dec-11 00:18 084 7.2
2017-Dec-11 00:08 326 2 gusting 7 7.2
2017-Dec-10 23:58 283 1 gusting 5 7.2
2017-Dec-10 23:48 332 7.2
2017-Dec-10 23:38 035 6.7
2017-Dec-10 23:28 030 1 gusting 4 7.2
2017-Dec-10 23:18 314 2 gusting 6 5.6
2017-Dec-10 23:08 286 4 gusting 7 5.6
2017-Dec-10 22:58 171 6.1
2017-Dec-10 22:48 171 6.7
2017-Dec-10 22:38 131 0 gusting 6 7.2
2017-Dec-10 22:28 053 1 gusting 13 7.2
2017-Dec-10 22:18 011 0 gusting 7 6.7
2017-Dec-10 22:08 024 0 gusting 8 6.7
2017-Dec-10 21:58 290 0 gusting 11 7.2
2017-Dec-10 21:48 011 1 gusting 12 7.2
2017-Dec-10 21:38 032 2 gusting 11 7.2
2017-Dec-10 21:28 304 1 gusting 10 7.2
2017-Dec-10 21:18 026 6.7
2017-Dec-10 21:08 003 4 gusting 11 6.7
2017-Dec-10 20:58 012 0 gusting 8 6.7
2017-Dec-10 20:48 343 1 gusting 8 6.7
2017-Dec-10 20:38 346 2 gusting 11 6.7
2017-Dec-10 20:28 310 4 gusting 12 6.1
2017-Dec-10 20:18 331 1 gusting 10 6.1
2017-Dec-10 20:08 338 5 gusting 11 6.7
2017-Dec-10 19:58 348 1 gusting 11 6.7
2017-Dec-10 19:48 028 3 gusting 12 7.2
2017-Dec-10 19:38 019 5 gusting 13 7.2
2017-Dec-10 19:28 026 6 gusting 13 7.2
2017-Dec-10 19:18 015 5 gusting 14 7.2
2017-Dec-10 19:08 005 7 gusting 17 7.2
2017-Dec-10 18:58 327 5 gusting 12 6.7
2017-Dec-10 18:48 003 5 gusting 13 6.7
2017-Dec-10 18:38 350 0 gusting 2 6.7
2017-Dec-10 18:28 347 2 gusting 7 7.2
2017-Dec-10 18:18 355 2 gusting 10 7.2
2017-Dec-10 18:08 344 1 gusting 6 7.2
2017-Dec-10 17:58 349 2 gusting 10 7.2
2017-Dec-10 17:48 292 2 gusting 7 7.2
2017-Dec-10 17:38 348 3 gusting 11 7.8
2017-Dec-10 17:28 322 1 gusting 12 7.8
2017-Dec-10 17:18 012 6 gusting 19 7.8
2017-Dec-10 17:08 347 4 gusting 11 7.2
2017-Dec-10 16:58 009 4 gusting 7 7.2
2017-Dec-10 16:48 7.2
2017-Dec-10 16:38 005 1 gusting 6 7.2
2017-Dec-10 16:28 026 4 gusting 7 7.2
2017-Dec-10 16:18 009 5 gusting 8 7.2
2017-Dec-10 16:08 355 4 gusting 8 7.2
2017-Dec-10 15:58 351 4 gusting 7 7.2
2017-Dec-10 15:48 324 1 gusting 6 7.2
2017-Dec-10 15:38 355 0 gusting 2 7.8
2017-Dec-10 15:28 342 7.8
2017-Dec-10 15:18 323 0 gusting 6 7.8
2017-Dec-10 15:08 346 1 gusting 5 7.8
2017-Dec-10 14:58 315 0 gusting 6 7.8
2017-Dec-10 14:48 328 0 gusting 6 8.3
2017-Dec-10 14:38 014 1 gusting 6 8.9
2017-Dec-10 14:28 309 3 gusting 11 8.9
2017-Dec-10 14:18 169 3 gusting 7 9.4
2017-Dec-10 14:08 178 1 gusting 11 9.4
2017-Dec-10 13:58 275 5 gusting 11 9.4
2017-Dec-10 13:48 130 3 gusting 10 9.4
2017-Dec-10 13:38 275 3 gusting 13 10.0
2017-Dec-10 13:28 281 1 gusting 13 10.0
2017-Dec-10 13:18 257 6 gusting 13 10.0
2017-Dec-10 13:08 189 4 gusting 12 10.0
2017-Dec-10 12:58 214 2 gusting 12 10.0
2017-Dec-10 12:48 250 4 gusting 11 10.0
2017-Dec-10 12:38 255 6 gusting 12 10.6
2017-Dec-10 12:28 229 5 gusting 13 10.0
2017-Dec-10 12:18 263 4 gusting 12 10.6
2017-Dec-10 12:08 051 6 gusting 13 10.6
2017-Dec-10 11:58 239 6 gusting 12 10.6
2017-Dec-10 11:48 107 4 gusting 13 10.6
2017-Dec-10 11:38 252 4 gusting 13 10.6
2017-Dec-10 11:28 215 2 gusting 13 10.6
2017-Dec-10 11:18 208 6 gusting 13 10.6
2017-Dec-10 11:08 149 5 gusting 19 10.6
2017-Dec-10 10:58 204 6 gusting 19 10.6
2017-Dec-10 10:48 162 5 gusting 15 10.6
2017-Dec-10 10:38 198 5 gusting 14 10.0
2017-Dec-10 10:28 281 4 gusting 19 10.6
2017-Dec-10 10:18 225 8 gusting 19 10.0
2017-Dec-10 10:08 186 9 gusting 24 10.0
2017-Dec-10 09:58 195 6 gusting 18 10.6
2017-Dec-10 09:48 214 6 gusting 15 10.6
2017-Dec-10 09:38 198 6 gusting 17 10.6
2017-Dec-10 09:28 200 8 gusting 14 10.6
2017-Dec-10 09:18 176 6 gusting 19 10.6
2017-Dec-10 09:08 193 7 gusting 18 10.6
2017-Dec-10 08:58 210 3 gusting 19 10.6
2017-Dec-10 08:48 180 8 gusting 21 10.0
2017-Dec-10 08:38 163 6 gusting 13 10.0
2017-Dec-10 08:28 237 6 gusting 17 10.0
2017-Dec-10 08:18 257 5 gusting 14 10.0
2017-Dec-10 08:08 255 5 gusting 15 10.0
2017-Dec-10 07:58 194 5 gusting 19 10.0
2017-Dec-10 07:48 320 6 gusting 17 10.0
2017-Dec-10 07:38 244 7 gusting 19 9.4
2017-Dec-10 07:28 244 6 gusting 19 9.4
2017-Dec-10 07:18 270 6 gusting 19 9.4
2017-Dec-10 07:08 262 2 gusting 22 9.4
2017-Dec-10 06:58 277 8 gusting 24 9.4
2017-Dec-10 06:48 249 7 gusting 21 9.4
2017-Dec-10 06:38 220 8 gusting 18 9.4
2017-Dec-10 06:28 195 6 gusting 20 9.4
2017-Dec-10 06:18 276 5 gusting 14 9.4
2017-Dec-10 06:08 225 10 gusting 22 8.9
2017-Dec-10 05:58 299 7 gusting 22 8.9
2017-Dec-10 05:48 263 9 gusting 19 9.4
2017-Dec-10 05:38 274 4 gusting 21 8.9
2017-Dec-10 05:28 334 5 gusting 14 8.9
2017-Dec-10 05:18 286 3 gusting 13 9.4
2017-Dec-10 05:08 272 5 gusting 17 9.4
2017-Dec-10 04:58 274 5 gusting 17 10.0
2017-Dec-10 04:48 259 6 gusting 14 10.6
2017-Dec-10 04:38 225 5 gusting 12 10.6
2017-Dec-10 04:28 318 5 gusting 13 10.6
2017-Dec-10 04:18 262 1 gusting 6 10.0
2017-Dec-10 04:08 043 10.6
2017-Dec-10 03:58 322 1 gusting 6 10.0
2017-Dec-10 03:48 169 2 gusting 6 10.0
2017-Dec-10 03:38 040 0 gusting 7 10.6
2017-Dec-10 03:28 010 4 gusting 11 10.0
2017-Dec-10 03:18 338 5 gusting 13 10.0
2017-Dec-10 03:08 297 4 gusting 18 10.0
2017-Dec-10 02:58 017 5 gusting 17 10.0
2017-Dec-10 02:48 301 0 gusting 7 10.0
2017-Dec-10 02:38 028 5 gusting 10 10.0
2017-Dec-10 02:28 005 3 gusting 13 10.0
2017-Dec-10 02:18 175 4 gusting 18 10.6
2017-Dec-10 02:08 074 2 gusting 15 11.7
2017-Dec-10 01:58 273 6 gusting 17 13.3
2017-Dec-10 01:48 219 6 gusting 13 13.3
2017-Dec-10 01:38 200 0 gusting 7 13.3
2017-Dec-10 01:28 241 4 gusting 6 13.3
2017-Dec-10 01:18 219 4 gusting 7 13.3
2017-Dec-10 01:08 219 4 gusting 7 13.3
2017-Dec-10 00:58 226 2 gusting 13 13.3
2017-Dec-10 00:48 254 3 gusting 10 13.3
2017-Dec-10 00:38 208 3 gusting 8 13.3
2017-Dec-10 00:28 254 4 gusting 8 13.3
2017-Dec-10 00:18 230 5 gusting 10 13.3
2017-Dec-10 00:08 224 5 gusting 10 13.3